Погода в Уттарадите

Таиланд     17°35′50″N   100°05′38″E
темп.,
°C
ветер,
м/с
пор.,
м/с
влажн.,
%
обл.,
%
осадки,
мм/ч
давл.,
гПа
погр.,
м
15 апреля, чт
чт1501:00+26в1173100 5.6 1009114
04:00+26ююз1179100 0.0 100853
07:00+26ю1175100 0.0 1010159
10:00+30ююз1258100 0.0 1011811
13:00+34ююз2244100 0.0 10081256
16:00+35ююв1138100 0.0 10051538
19:00+33юв224410 0.1 100528
22:00+30з2451100 0.3 1008128
16 апреля, пт
пт1601:00+28юз115883 0.7 100744
04:00+27юв237094 0.1 1007162
07:00+27юв236899 0.1 1009252
10:00+31ю335394 0.0 1011934
13:00+36ю334170 0.0 10081710
16:00+36ю5439100 0.0 10041769
19:00+33ююв2347100 0.0 100652
22:00+26с61268100 2.6 1010370
17 апреля, сб
сб1701:00+25с1377100 4.4 1010137
04:00+25ссв237867 0.0 1009160
07:00+25всв137799 1.0 1012206
10:00+26вюв1171100 1.3 1014415
13:00+26св2272100 1.3 1012473
16:00+28юз2261100 0.0 1010861
19:00+25ююз3483100 0.0 1011238
22:00+25ю1286100 0.0 1013125
18 апреля, вс
вс1801:00+24ю1188100 0.0 101327
04:00+24вюв119021 0.0 101214
07:00+24с118631 0.0 1014149
10:00+30ю116025 0.0 10141013
13:00+33юз324558 0.0 10102023
16:00+34юв324199 0.1 10071865
19:00+31ю225299 0.1 100841
22:00+29ююв225818 0.0 100936
19 апреля, пн
пн1901:00+28ююв116223 0.0 100917
04:00+27в22675 0.0 100851
07:00+25всв22750 3.0 1010121
10:00+31ююв33560 0.0 10111078
13:00+36ююв223930 0.0 10072256
16:00+37ююв543460 0.0 10042325
19:00+29ссз125986 1.2 100665
22:00+29ю26656 1.5 1008178